Volver al catálogo

FENGYUN 1C DEB

ActivoSSO
NORAD 30348·DEBRIS·🇨🇳 China

Lanzado May 10, 1999 desde Taiyuan Satellite Launch Center

Loading…

Próximos Pases (próximas 24 horas)

TLE

ActualizadoSource: Space-Track

Época: Sep 14, 2026, 06:26 UTC

1 30348U 99025ABK 26257.26866712  .00002845  00000-0  96147-3 0  9992
2 30348  98.8660   4.9521 0017819 277.7733 111.7397 14.37623066 14866

Sigue FENGYUN 1C DEB en tiempo real con AllMySat

Download on the App Store